Location: Zagreb
(45.8000°N, 16.0000°E)
Time: 15:34:04
(UTC+02:00)

Tiangong - Pass Details

Date: 30 January 2022
Orbit: 386 x 389 km, 41.5° (Epoch: 22 May)

Event Time Altitude Azimuth Distance (km) Brightness Sun altitude
Rises 17:47:07 0° 236° (SW) 2,340 6.7 -8.7°
Reaches altitude 10° 17:49:24 10° 223° (SW) 1,483 5.0 -9.1°
Maximum altitude 17:52:18 27° 164° (SSE) 839 2.8 -9.6°
Enters shadow 17:55:00 11° 106° (ESE) 1,424 3.4 -10.0°
